Home > Time Zones > World Clock > Weather > Latvia > Riga > Past weeks

Flag for Latvia Weather past 2 weeks in Riga, Latvia

Now
63 °F

Clear.


Feels Like: 63 °F
Forecast: 69 / 89 °F
Wind: 2 mph from North

Location: Riga Airport

Current Time: Aug 2, 2014 at 4:31:21 AM

Latest Report: Aug 2, 2014 at 3:50 AM


Visibility: 10 mi

Pressure: 30.07 "Hg

Humidity: 88%

Dew point: 59 °F

Location of RigaLocation

Historic Weather in Riga — Graph

°F

Riga temperature yesterday

Maximum temperature yesterday: 79 °F (at 6:50 PM)
Minimum temperature yesterday: 61 °F (at 3:20 AM)
Average temperature yesterday: 70 °F

Past Weeks' High & Low Weather Summary

 TemperatureHumidityPressure
High88 °F (Jul 27, 4:50 PM)100% (Jul 18, 3:50 AM)30.18 "Hg (Jul 18, 3:50 AM)
Low55 °F (Jul 23, 4:50 AM)31% (Jul 27, 1:20 PM)29.71 "Hg (Jul 31, 11:20 AM)
Average71 °F72%30.01 "Hg
* Reported Jul 18 3:20 AM — Aug 2 3:20 AM, Riga, Weather by CustomWeather, © 2014

Note: Actual official high and low records may vary slightly from our data, if they occured in-between our weather recording intervals... More about our weather records

Advertising

Riga weather history for previous 24 hours

 ConditionsComfort  
Time TempWeatherWind HumidityBarometerVisibility
3:20 AM
Aug 2
64 °FClear.No wind83%30.07 "Hg10 mi
2:50 AM64 °FClear.No wind83%30.04 "Hg10 mi
2:20 AM64 °FClear.No wind83%30.04 "Hg10 mi
1:50 AM66 °FClear.No wind83%30.04 "Hg10 mi
1:20 AM66 °FClear.7 mph83%30.04 "Hg10 mi
12:50 AM66 °FClear.6 mph83%30.04 "Hg10 mi
12:20 AM64 °FClear.2 mph88%30.04 "Hg10 mi
11:50 PM
Aug 1
64 °FClear.5 mph88%30.04 "Hg10 mi
11:20 PM68 °FPassing clouds.3 mph78%30.01 "HgN/A
10:50 PM66 °FClear.5 mph78%30.01 "Hg10 mi
10:20 PM68 °FClear.5 mph73%30.01 "Hg6 mi
9:50 PM68 °FSunny.5 mph73%30.01 "Hg10 mi
9:20 PM70 °FPassing clouds.6 mph69%30.01 "HgN/A
8:50 PM70 °FSunny.7 mph69%30.01 "Hg10 mi
8:20 PM72 °FSunny.8 mph65%29.98 "Hg10 mi
7:50 PM77 °FSunny.3 mph51%29.98 "Hg10 mi
7:20 PM79 °FClear.2 mph45%29.98 "Hg6 mi
6:50 PM79 °FSunny.1 mph48%29.98 "Hg10 mi
6:20 PM77 °FSunny.No wind51%29.98 "Hg10 mi
5:50 PM77 °FSunny.2 mph54%29.98 "Hg10 mi
5:20 PM77 °FScattered clouds.3 mph47%29.98 "HgN/A
4:50 PM77 °FScattered clouds.7 mph51%29.98 "HgN/A
4:20 PM77 °FScattered clouds.5 mph47%29.98 "HgN/A
3:50 PM77 °FScattered clouds.1 mph51%29.98 "HgN/A
3:20 PM77 °FScattered clouds.3 mph51%29.98 "HgN/A
2:50 PM75 °FScattered clouds.2 mph54%29.98 "HgN/A
2:20 PM77 °FScattered clouds.5 mph51%29.98 "HgN/A
1:50 PM77 °FScattered clouds.3 mph51%29.98 "HgN/A
1:20 PM77 °FScattered clouds.6 mph54%29.98 "HgN/A
12:50 PM75 °FScattered clouds.6 mph54%29.98 "HgN/A
12:20 PM75 °FScattered clouds.5 mph57%29.98 "HgN/A
11:50 AM73 °FScattered clouds.3 mph65%29.98 "HgN/A
11:20 AM73 °FScattered clouds.6 mph65%29.98 "HgN/A
10:50 AM73 °FScattered clouds.5 mph69%29.98 "HgN/A
10:20 AM72 °FScattered clouds.3 mph78%29.95 "HgN/A
9:50 AM70 °FPassing clouds.3 mph83%29.95 "HgN/A
9:20 AM70 °FPassing clouds.3 mph83%29.95 "HgN/A
8:50 AM68 °FPassing clouds.3 mph83%29.95 "HgN/A
8:20 AM66 °FPassing clouds.3 mph88%29.92 "HgN/A
7:50 AM64 °FPassing clouds.3 mph94%29.95 "HgN/A
7:20 AM63 °FPassing clouds.3 mph94%29.92 "HgN/A
6:50 AM63 °FPassing clouds.3 mph94%29.92 "HgN/A
6:20 AM61 °FPassing clouds.5 mph94%29.92 "HgN/A
5:50 AM61 °FPassing clouds.3 mph94%29.92 "HgN/A
5:20 AM61 °FClear.3 mph94%29.92 "Hg10 mi
4:50 AM61 °FClear.5 mph100%29.92 "Hg10 mi
4:20 AM61 °FClear.5 mph100%29.92 "Hg10 mi
Weather by CustomWeather, © 2014

See weather overviewHow to use our weather pages